Theta_e
320 320 320 321 321 322 323 323 323 322 324 323 324 324 323 323 323 324 325 326 324 324 325 325 327 325 324 322 324 325 319 299 299 297 297 299 318 324 326 328 328 331 326 305 302 298 294 296 296 295 297 294 292 292 292 294 291 288 282 281 280 278 279 282 281 279 282 283 285 287 286 286 286 288 290 292 291 289 289 290 291 292 293 292 292 293 293 295
320 320 321 321 322 322 323 322 324 324 323 324 324 324 324 324 324 324 326 324 324 325 326 326 326 326 324 321 321 323 305 302 298 297 296 312 322 324 327 326 328 327 321 304 299 295 296 294 294 296 291 290 293 291 292 290 291 284 279 280 280 277 284 285 285 283 284 285 286 286 286 286 287 288 290 287 288 288 288 288 288 288 290 291 292 292 293 294
319 319 320 320 320 321 321 322 322 323 324 324 325 325 325 323 322 322 323 325 325 326 326 325 324 324 324 323 323 320 306 299 299 295 298 320 322 324 326 326 327 327 306 306 303 296 296 293 293 295 292 291 292 289 291 289 290 284 283 280 280 283 285 286 287 287 285 286 285 286 287 287 288 289 291 288 286 287 286 286 286 287 288 289 291 291 293 292
319 319 319 320 320 320 321 320 320 322 322 323 324 324 325 324 324 324 325 324 326 325 326 323 323 323 322 324 325 307 303 297 293 294 299 322 322 324 325 325 327 321 305 305 299 299 296 296 294 294 290 290 288 290 289 289 286 285 283 276 283 285 283 287 287 287 287 286 286 286 287 286 289 290 288 286 286 286 286 287 289 287 288 289 291 291 291 291
319 319 318 320 319 320 320 320 321 321 322 323 323 324 324 325 324 324 324 325 324 325 323 323 321 321 321 319 318 302 298 290 291 296 302 321 322 323 324 324 325 314 305 304 298 297 297 295 292 291 290 285 287 286 286 288 287 284 282 284 285 284 285 287 287 288 287 286 285 285 287 288 289 288 286 286 285 281 284 288 289 289 290 290 291 292 291 290
319 319 319 320 319 319 321 320 321 320 321 322 323 323 324 324 322 323 324 324 324 323 322 323 324 317 318 315 303 300 295 280 294 297 315 321 322 322 321 323 320 312 304 301 296 296 296 294 293 287 286 285 285 285 286 287 288 284 283 284 285 284 285 287 288 287 286 286 285 286 288 288 287 287 287 285 284 286 288 289 290 290 291 292 291 291 290 290
319 320 319 319 318 318 319 319 320 321 321 321 322 323 324 322 324 322 322 323 323 322 322 323 325 323 321 316 302 300 294 292 295 301 317 321 320 317 320 317 313 305 305 301 298 296 293 293 293 288 286 286 286 286 287 288 289 285 282 285 285 286 286 286 288 285 283 285 287 288 288 287 287 286 288 288 288 288 289 290 290 291 291 291 291 291 289 290
319 320 319 319 318 318 318 320 320 320 321 321 321 323 323 324 324 324 321 321 322 322 321 323 323 322 315 299 298 293 292 291 298 302 315 316 310 308 312 305 305 304 304 301 300 296 293 292 291 289 286 284 286 287 288 288 286 284 283 286 286 287 288 287 286 285 287 288 288 287 288 287 285 287 288 287 287 289 290 290 290 291 290 290 289 289 289 289
319 319 318 318 317 318 318 319 320 321 322 321 320 321 324 324 324 322 321 321 322 321 320 321 322 319 316 302 294 295 291 297 301 303 303 302 304 303 304 304 304 303 301 301 300 298 295 292 291 289 286 286 289 287 287 285 284 285 285 285 286 287 288 287 287 286 288 290 288 286 285 285 287 289 288 287 288 288 289 290 290 289 290 289 289 289 289 289
318 318 318 318 317 318 318 318 319 321 322 321 322 322 322 324 322 320 320 321 322 322 320 318 317 318 303 297 296 292 294 302 303 302 301 303 304 303 304 304 303 302 301 299 301 298 294 293 294 294 293 289 288 286 287 285 284 286 286 286 287 287 287 288 287 287 288 289 288 287 284 285 287 289 282 287 288 288 290 289 288 288 289 290 289 289 288 289
318 317 318 317 317 318 318 318 319 321 320 321 320 321 321 321 320 320 320 321 322 323 322 317 317 311 300 299 294 289 300 302 302 302 303 304 303 302 301 304 303 301 300 300 299 299 298 295 295 295 292 288 290 287 287 287 288 288 287 286 285 285 285 285 286 287 287 287 285 286 286 287 288 287 283 284 288 289 289 288 288 287 287 287 288 289 288 289
318 316 317 317 317 317 317 317 319 320 320 320 320 320 320 320 320 319 320 321 321 323 321 320 321 305 300 300 295 294 301 303 302 302 304 304 302 301 301 303 303 302 301 299 300 300 299 299 297 292 289 292 287 287 288 289 289 287 286 284 285 284 285 285 286 287 287 286 286 286 284 283 284 286 287 284 287 290 289 287 286 286 286 286 286 287 288 288
317 316 317 317 316 317 317 317 319 320 321 320 319 318 319 321 321 321 321 320 321 324 322 321 314 305 300 295 295 303 301 302 302 303 305 305 302 303 302 303 303 302 302 302 300 302 298 296 298 294 292 288 287 285 289 289 287 288 285 284 283 280 280 286 286 285 287 287 286 286 279 277 279 284 287 286 289 289 288 285 285 284 285 285 286 287 287 288
317 316 316 316 316 317 316 317 318 321 320 320 319 318 317 319 322 321 321 320 320 324 323 321 305 301 297 290 300 304 304 303 303 304 303 304 302 302 303 305 304 304 302 302 300 300 299 298 298 294 293 290 287 295 291 288 286 283 285 282 279 277 280 285 286 284 286 287 285 287 280 277 281 283 285 286 289 288 286 284 284 284 284 285 287 286 287 287
316 315 316 316 316 316 316 318 319 320 320 319 318 317 317 317 320 322 321 318 320 322 322 315 304 298 293 294 300 305 317 302 302 301 302 301 299 301 303 304 303 303 303 303 302 302 299 298 298 292 290 291 291 288 283 283 283 285 282 277 277 278 283 283 285 284 283 286 286 284 278 277 281 283 285 287 288 287 285 285 284 283 284 285 285 286 287 287
315 315 315 315 316 316 317 317 318 318 319 319 317 316 316 317 319 321 321 320 322 320 307 303 302 302 297 294 301 311 300 298 300 302 301 301 299 301 301 301 302 303 304 302 304 302 299 298 292 290 289 289 285 281 281 281 281 281 279 279 280 279 281 282 286 284 286 284 286 285 280 280 283 283 284 286 288 287 285 284 283 284 285 285 286 286 286 286
314 315 314 315 316 317 317 316 316 317 317 317 317 315 319 317 318 318 319 318 312 310 308 301 299 301 293 298 305 297 294 297 301 301 301 301 301 301 302 301 300 301 301 303 300 299 296 293 290 288 288 285 284 282 280 276 275 276 279 280 280 281 280 279 282 286 284 284 283 284 282 280 282 283 284 286 287 286 285 285 283 283 283 285 285 285 285 286
314 314 314 315 315 316 316 316 316 316 317 317 316 318 309 319 316 314 311 308 306 304 302 304 298 298 294 299 293 295 298 296 300 299 299 300 301 302 302 300 300 299 296 297 298 294 292 288 288 283 284 284 284 281 279 279 280 279 279 277 278 278 279 281 280 284 285 283 284 282 281 283 284 284 283 286 287 286 285 285 284 283 284 285 284 285 285 285
314 314 314 314 316 315 316 315 316 317 318 317 318 316 319 316 303 303 303 303 299 295 292 295 294 288 284 294 294 296 298 299 299 299 299 300 300 301 300 301 297 296 293 291 292 290 289 286 286 283 280 281 281 281 279 280 280 280 279 279 278 279 278 280 282 283 283 282 282 280 281 282 284 284 284 283 286 285 286 283 284 285 284 284 285 285 284 285
313 313 314 314 314 315 316 316 316 318 317 314 302 307 301 295 295 292 297 301 294 293 294 294 294 295 295 293 295 299 301 301 297 299 300 301 300 298 296 296 295 295 289 286 288 288 287 282 278 276 280 280 280 281 282 282 283 282 280 280 279 278 279 281 282 285 283 282 279 280 280 280 283 284 285 284 284 285 284 284 284 284 285 285 284 284 284 284
313 312 314 314 314 314 315 315 316 316 315 301 301 302 299 291 289 287 290 293 293 293 294 295 294 295 295 295 295 297 294 297 297 298 300 302 299 297 294 292 290 291 287 286 287 290 287 283 280 280 281 281 282 281 281 281 281 282 280 280 280 280 279 283 283 283 284 284 280 279 282 284 285 285 285 284 284 285 284 284 283 284 283 284 284 284 284 285
312 312 313 314 313 314 315 316 314 315 311 303 300 298 295 297 297 294 291 289 294 294 294 294 294 295 296 295 297 296 295 293 298 298 302 302 298 293 291 290 287 285 285 286 283 284 283 280 281 283 283 283 281 281 280 281 279 278 282 280 280 278 281 282 283 282 284 284 281 279 282 283 284 285 284 284 284 282 284 285 284 284 285 285 284 284 285 285
312 312 313 314 313 314 315 316 313 310 296 297 294 292 294 297 296 292 292 293 290 294 293 292 294 292 294 297 297 299 292 291 289 296 298 298 292 293 289 287 287 285 288 285 283 280 283 281 283 284 283 283 281 280 279 277 279 279 278 278 279 279 280 277 279 281 284 283 280 280 280 282 283 283 283 283 283 284 285 284 284 284 286 285 285 286 286 285
312 312 313 312 314 314 316 314 310 301 296 295 294 293 295 294 293 295 293 287 289 292 295 294 293 292 293 295 297 296 292 292 291 294 300 294 291 291 288 286 285 283 283 284 284 284 281 284 285 282 282 284 282 279 280 278 279 278 278 276 277 278 277 277 278 280 281 283 282 281 278 279 280 280 281 284 284 287 286 286 286 286 286 285 286 286 286 286
312 312 313 312 314 315 315 311 300 295 293 294 294 295 294 294 294 295 292 286 286 290 295 295 292 295 297 299 298 298 292 293 293 294 295 296 293 290 289 289 284 282 283 282 283 283 281 285 285 282 281 281 279 278 277 276 276 275 278 279 280 278 278 277 278 279 277 279 280 280 275 276 278 278 279 281 282 283 282 282 284 285 285 285 286 286 287 286
311 312 312 314 314 314 318 299 295 294 294 291 296 296 294 293 290 294 287 278 279 285 293 290 299 294 298 296 296 289 293 289 295 296 299 297 297 292 288 287 286 284 282 282 283 282 283 284 282 282 281 280 279 280 280 278 276 276 281 279 281 279 278 277 278 278 275 277 279 277 278 274 276 279 282 280 280 282 283 282 283 284 285 285 285 286 285 286
311 312 313 313 313 314 299 294 296 298 297 299 295 294 293 293 294 297 290 275 275 285 288 295 296 294 301 295 295 294 286 288 296 295 296 298 296 298 289 284 286 284 280 280 281 282 283 283 283 279 278 278 279 280 280 279 276 278 281 279 280 279 280 278 277 275 277 276 276 274 277 275 274 278 280 280 280 281 281 282 284 284 284 285 285 285 285 286
310 311 312 313 311 310 296 300 296 294 296 299 295 294 293 291 293 293 282 272 273 289 287 289 296 298 298 296 294 291 292 292 289 293 296 297 296 295 290 285 284 285 285 282 278 282 283 283 281 281 277 277 279 281 282 281 281 280 281 280 281 280 280 278 278 277 276 277 274 273 274 276 273 277 279 280 282 279 279 281 284 284 284 284 285 285 285 285
310 312 312 313 313 308 299 297 292 293 295 293 292 293 294 294 293 287 278 273 281 286 298 292 303 296 291 295 291 288 291 292 288 292 294 295 296 293 288 287 284 285 285 284 281 283 284 283 283 282 280 280 280 280 280 281 279 281 282 281 281 280 279 280 278 279 277 276 274 276 274 275 275 275 277 278 281 280 280 280 282 284 284 284 285 285 285 285
311 311 312 311 306 296 296 293 294 292 294 293 292 293 295 294 290 284 276 273 286 281 292 291 292 289 287 287 287 289 290 288 290 291 292 288 292 293 290 291 285 282 285 285 284 283 284 287 287 282 282 284 282 280 280 281 282 282 281 280 279 278 275 275 275 277 274 271 275 276 275 277 273 275 277 280 281 280 280 281 282 282 282 283 284 285 286 286
311 311 309 307 295 294 294 289 293 294 292 292 296 298 294 285 278 270 271 277 286 284 289 287 286 287 284 285 285 287 286 285 289 288 287 289 289 286 287 288 287 284 280 282 282 283 284 283 285 285 286 284 283 282 282 281 281 282 279 278 279 280 276 274 267 266 273 270 274 278 276 278 272 276 279 281 280 281 283 283 283 283 283 284 284 285 285 285
311 311 309 300 300 295 295 290 293 293 293 292 295 291 289 286 282 276 277 287 281 283 281 284 285 284 283 282 282 283 284 284 286 285 284 281 281 282 281 280 276 279 277 278 279 282 284 283 283 284 288 284 281 282 282 282 280 279 278 278 278 273 271 275 271 273 268 275 279 276 278 276 275 278 278 278 281 281 281 283 283 282 282 283 284 285 285 285
310 310 309 302 298 291 292 293 292 293 292 296 291 288 284 275 275 275 276 276 280 284 283 286 284 284 283 281 281 282 282 286 286 285 285 282 280 280 281 282 281 282 279 278 280 279 283 283 283 283 284 284 283 280 279 280 280 281 277 275 274 271 265 268 264 268 268 274 278 276 278 277 278 280 281 282 283 283 283 283 283 284 284 284 285 285 285 286
310 307 296 299 295 295 295 295 294 292 295 292 293 288 282 279 277 286 275 273 279 280 284 282 283 283 279 284 284 283 286 286 283 285 282 279 279 278 279 281 281 280 278 278 278 277 275 278 283 282 282 282 281 282 282 281 279 279 279 279 277 272 274 272 268 274 273 274 275 275 274 272 278 282 283 283 282 281 281 282 282 282 283 283 283 284 285 285
309 298 295 295 293 294 294 293 293 295 293 293 286 282 278 277 276 276 276 277 278 280 285 281 284 281 282 280 282 283 285 284 284 280 281 279 279 276 279 280 281 281 279 279 279 276 282 279 283 283 283 282 281 283 281 279 280 279 279 278 278 275 272 276 268 268 267 269 271 272 276 275 281 282 282 281 279 282 281 282 283 285 284 283 285 286 286 286
307 299 297 294 295 295 292 295 292 296 294 290 286 282 278 276 279 277 280 283 282 283 283 282 279 281 281 280 281 281 287 283 283 278 279 278 279 280 281 280 280 281 279 279 280 276 277 283 283 282 283 281 282 282 282 282 279 280 278 274 278 278 276 268 271 269 269 267 270 270 278 280 281 282 282 279 281 283 281 282 282 284 284 282 284 286 286 286
295 295 296 294 292 294 293 294 297 292 292 284 280 281 277 276 279 279 286 283 284 282 283 281 280 281 280 280 281 280 282 284 283 280 279 281 280 278 280 281 282 280 282 280 279 282 278 278 280 282 283 284 281 281 281 282 283 279 277 279 281 280 277 275 273 263 262 269 271 272 274 277 278 277 280 282 281 282 281 282 282 282 282 283 286 286 286 287
297 294 296 295 295 294 294 294 297 292 288 286 280 288 275 278 282 283 283 284 284 283 280 279 280 283 276 278 282 283 282 284 284 277 278 279 279 283 280 280 283 281 281 280 280 279 281 276 282 282 281 283 281 283 283 283 283 281 282 279 281 272 275 270 269 269 269 265 268 273 274 275 277 279 278 280 280 282 282 282 281 284 284 284 284 285 286 286
292 292 292 295 295 294 295 293 292 288 283 284 275 285 279 277 283 283 283 284 284 283 284 280 279 278 278 277 281 281 281 282 281 279 278 280 279 283 282 281 283 281 280 281 278 280 281 276 277 281 283 282 281 280 278 278 282 278 281 281 276 277 273 270 272 270 270 268 269 272 270 276 278 277 279 282 280 281 281 280 282 283 284 284 284 285 286 287
293 292 288 300 294 292 294 293 290 287 286 284 277 277 277 278 281 282 282 285 282 284 283 281 278 278 278 277 282 284 281 280 280 281 280 280 283 284 284 282 280 282 280 280 281 279 279 279 273 279 278 281 280 279 280 279 279 279 277 275 278 275 276 277 273 273 273 265 265 264 271 274 279 279 280 280 279 282 281 283 283 284 284 284 284 286 286 286
288 287 291 297 295 293 294 293 286 279 277 275 273 274 276 278 281 283 283 284 283 284 284 282 280 280 278 277 280 280 281 278 280 281 279 280 280 281 282 281 281 281 281 280 279 278 275 276 276 276 277 277 280 280 279 278 279 280 278 280 278 276 273 273 272 268 266 271 267 265 273 277 283 283 282 281 281 281 281 283 284 283 284 284 285 286 286 286
291 282 288 296 293 293 290 284 278 273 276 275 278 278 281 288 276 281 281 281 283 282 282 282 282 279 277 279 280 278 278 279 279 279 280 282 283 282 283 281 281 280 281 281 280 281 280 275 277 275 276 279 279 280 279 279 278 276 278 280 277 276 273 267 269 270 268 269 265 266 268 276 284 280 280 281 280 281 281 281 283 285 285 285 285 286 286 285
283 287 293 295 296 295 288 279 281 278 275 276 280 282 281 279 278 281 280 281 281 282 282 280 284 282 280 281 276 275 279 281 278 282 280 279 278 280 281 279 280 282 281 278 282 278 286 271 272 275 275 277 278 278 278 278 279 279 277 278 277 278 277 277 274 270 270 269 269 267 267 277 283 280 280 281 280 279 280 279 283 284 285 285 286 287 287 286
285 287 291 294 294 293 288 284 277 275 275 276 278 279 282 279 280 277 277 279 281 280 283 281 282 282 282 278 278 278 279 280 283 282 282 279 282 282 279 280 279 280 280 281 279 282 276 276 276 270 270 271 273 276 276 274 275 276 277 277 277 278 277 276 273 269 273 270 272 272 270 273 279 280 280 281 280 282 283 284 281 283 285 286 287 287 287 286
286 289 286 288 293 293 286 281 279 275 276 275 275 278 279 280 281 282 281 280 282 279 283 282 283 281 278 276 274 275 272 279 279 280 281 279 280 281 279 278 281 281 282 284 288 283 278 274 274 273 273 272 273 273 273 272 276 276 276 278 278 279 277 276 273 268 271 268 272 267 270 280 281 281 283 282 282 285 286 286 284 283 285 286 287 287 287 287
286 285 282 284 287 287 284 281 281 279 277 274 277 279 278 278 282 280 280 280 281 281 281 283 280 279 279 280 276 274 275 274 279 278 279 281 279 279 278 278 281 281 285 287 284 279 272 274 276 275 275 276 279 279 280 281 277 276 278 277 278 278 278 277 274 268 273 268 273 277 277 281 284 287 285 284 283 284 286 287 287 287 287 287 286 287 287 287
282 280 279 284 281 285 280 280 279 280 281 280 279 279 279 278 280 279 279 278 282 279 277 282 281 282 280 281 275 274 272 274 273 275 276 279 280 279 279 280 280 284 288 286 284 273 271 274 276 275 278 281 281 281 281 281 279 278 278 278 278 279 278 277 276 275 276 273 274 277 280 279 282 285 285 284 286 286 286 285 286 286 287 287 287 287 288 287
286 282 280 281 286 284 282 282 280 280 281 281 280 280 277 278 279 279 280 282 280 277 279 280 280 282 281 282 280 279 275 272 270 277 278 278 278 279 280 281 280 283 284 280 280 278 273 273 275 275 276 278 278 279 279 279 279 279 279 279 278 278 277 277 278 279 278 277 279 279 277 278 282 285 286 287 287 287 286 286 287 286 286 286 286 286 286 286
284 280 282 282 285 280 281 283 282 282 280 278 281 279 277 277 279 279 279 279 278 279 281 279 279 281 281 280 282 277 275 279 278 273 274 276 277 278 278 280 281 278 280 278 275 271 275 271 272 275 276 278 280 280 279 278 277 277 278 278 279 278 278 279 280 280 279 281 282 282 280 280 284 285 287 288 289 287 287 286 286 285 286 286 285 285 285 286
282 285 282 280 279 277 280 281 281 280 281 284 280 281 281 279 280 280 280 278 278 279 281 280 279 279 280 280 279 280 281 283 283 278 279 279 276 278 278 278 278 279 278 275 275 273 277 272 280 271 271 274 277 278 277 276 276 276 279 279 278 279 279 279 279 279 279 279 281 281 280 280 285 288 287 288 288 287 286 285 285 286 285 285 285 285 286 286
287 288 283 284 280 280 282 281 284 280 280 281 280 282 282 279 280 281 282 281 281 279 279 282 280 279 279 280 280 282 282 281 283 287 283 281 281 281 282 280 280 277 278 276 276 273 277 271 271 269 272 273 273 276 277 277 276 276 277 279 278 277 275 277 277 279 278 278 278 277 276 278 284 286 284 285 284 283 284 285 285 286 286 285 285 285 286 287
285 288 283 280 279 284 284 279 281 281 281 279 282 282 284 283 280 282 284 283 281 280 281 281 279 280 279 280 282 283 282 282 282 284 282 281 282 280 280 280 281 279 278 278 276 274 274 272 274 271 274 270 271 274 276 276 277 280 279 280 280 279 279 278 279 280 281 282 279 276 279 285 286 284 283 283 283 283 283 284 285 286 285 285 285 286 287 287
Wind_Speed
8 9 8 8 8 8 8 8 8 9 9 8 8 8 8 9 9 9 9 9 10 10 9 9 8 7 6 6 6 3 2 4 15 15 22 5 11 19 20 21 20 18 19 4 9 11 6 9 11 8 10 8 6 6 4 9 3 7 5 4 8 3 4 1 3 5 2 4 2 1 1 3 1 2 1 1 5 2 1 1 2 3 1 2 3 3 2 3
9 9 8 8 8 8 8 8 8 8 8 8 8 8 8 8 8 9 9 9 9 10 10 10 9 6 5 4 4 3 0 5 16 17 11 11 24 24 24 23 22 19 13 5 7 4 10 7 6 10 8 7 5 4 2 3 6 8 3 5 8 2 0 1 2 4 3 3 3 1 2 3 0 0 0 2 0 1 0 1 2 2 4 6 4 5 4 5
9 8 8 8 8 7 7 8 8 7 8 8 8 8 8 8 9 9 9 8 9 9 10 10 9 5 3 3 4 5 4 6 19 18 15 22 25 25 25 23 20 17 2 0 0 5 7 4 3 10 6 7 9 4 5 4 4 3 8 7 1 3 2 0 1 1 3 7 4 4 0 4 1 1 0 2 2 0 1 1 2 1 3 5 7 7 6 3
8 7 7 7 7 7 7 7 8 8 8 9 9 9 9 9 8 9 9 9 9 10 11 14 10 5 3 3 2 3 3 5 11 6 9 20 24 24 24 23 20 14 1 2 2 3 4 6 8 9 5 12 5 3 10 7 5 2 7 3 5 5 5 1 1 1 1 4 4 3 0 2 0 0 1 5 2 1 2 4 3 2 4 5 6 6 5 3
7 7 6 6 7 6 7 7 8 9 9 10 11 10 9 9 10 9 9 8 8 8 10 12 11 8 3 3 5 3 4 7 4 5 10 21 22 24 22 21 20 11 1 6 6 5 9 6 3 7 8 3 6 5 5 6 5 5 2 1 5 2 6 2 0 1 2 1 5 1 2 1 0 2 2 5 1 2 2 3 6 5 6 4 6 6 4 2
7 7 7 7 7 8 8 9 10 10 10 10 11 10 9 9 10 9 9 8 7 9 8 8 8 4 12 11 4 3 2 3 4 7 15 19 22 22 20 19 18 11 1 10 4 7 9 7 8 7 5 6 7 9 3 2 1 8 3 3 1 1 6 1 1 3 2 2 3 1 0 0 1 0 1 3 2 2 4 4 5 6 6 6 3 3 4 2
7 7 8 9 10 10 10 10 9 9 9 9 9 9 8 8 6 9 9 9 10 10 10 7 6 6 4 6 8 18 13 1 3 10 15 16 19 20 18 14 11 6 14 12 10 8 5 11 17 5 5 8 7 9 4 5 7 7 4 0 3 2 4 3 1 4 4 7 1 1 1 1 1 1 0 0 2 4 4 5 5 5 4 2 4 3 4 2
9 9 10 10 10 10 9 8 8 8 8 8 7 7 7 7 7 8 10 11 10 11 12 7 1 1 2 3 5 9 9 4 9 8 13 16 17 16 15 6 13 7 18 9 0 7 3 11 13 3 10 6 2 5 1 12 7 6 5 0 2 2 0 0 2 3 3 2 0 2 1 1 2 0 0 2 4 4 5 4 4 4 4 5 4 6 3 2
10 10 10 10 10 9 9 8 7 6 7 8 8 8 6 6 7 8 10 10 10 11 13 7 6 5 5 3 2 11 7 3 6 11 11 13 15 12 11 10 11 9 6 8 7 3 4 1 3 1 6 5 1 7 2 3 5 2 3 3 1 2 1 0 3 1 1 0 2 2 1 3 2 2 1 4 5 6 4 3 4 4 5 6 6 5 2 2
11 10 10 10 10 10 10 9 8 7 8 8 9 10 8 7 7 7 7 7 6 7 11 14 8 4 8 3 3 15 3 4 6 8 11 11 12 11 12 10 8 11 12 8 12 9 5 3 10 7 14 8 2 4 1 6 4 3 5 4 7 4 2 0 1 1 0 0 0 1 1 1 3 2 3 2 6 4 2 4 4 4 6 6 6 3 2 1
11 11 10 10 10 10 11 11 10 9 10 10 10 10 9 8 7 6 7 6 4 4 4 7 15 16 7 2 13 7 2 5 3 7 10 10 11 10 10 9 9 7 8 10 8 3 3 9 8 6 6 2 4 6 6 2 6 6 7 6 5 1 3 2 1 0 1 1 1 2 1 1 3 1 3 2 5 1 2 5 6 4 4 5 5 3 3 2
11 11 10 10 10 10 10 10 10 9 8 8 8 8 8 7 7 7 7 7 5 4 1 4 3 7 5 19 12 3 4 4 5 5 7 8 8 5 5 5 6 6 7 8 6 4 0 3 3 2 5 1 7 4 5 3 4 5 4 6 1 4 3 3 1 1 1 1 2 1 1 2 1 2 4 5 2 0 1 4 5 4 4 5 3 3 2 3
10 11 10 9 9 8 8 8 8 6 5 5 6 9 10 8 5 5 5 7 8 6 4 7 6 4 1 16 2 6 3 3 4 7 9 9 8 2 1 4 6 7 5 7 5 5 2 3 10 16 2 6 4 1 4 4 3 1 2 5 2 2 3 5 1 2 0 1 2 1 1 1 4 8 5 3 1 0 2 4 3 3 2 3 3 2 2 3
10 10 9 9 8 7 7 7 7 6 5 6 7 8 10 11 7 4 4 3 5 6 6 8 5 6 7 3 3 3 3 1 3 8 11 9 8 5 8 8 4 5 3 6 4 3 7 7 17 11 4 6 4 1 9 1 2 2 0 3 1 1 1 2 1 4 2 1 3 1 0 5 5 7 5 3 2 1 2 4 3 3 2 3 2 1 1 2
10 10 10 9 8 8 7 6 6 6 6 7 8 10 9 11 8 6 7 8 11 7 2 8 4 4 9 1 5 8 2 1 8 5 4 9 5 4 9 11 7 7 2 5 2 4 4 3 11 9 4 3 3 4 2 2 2 2 1 3 3 5 1 4 2 3 1 1 2 2 0 5 5 7 4 3 1 1 3 4 3 3 1 3 2 1 1 3
11 11 11 10 8 7 6 6 6 6 6 6 8 9 9 13 8 7 7 1 6 9 1 4 7 9 11 4 1 3 4 5 8 5 2 2 2 2 5 6 4 5 6 5 3 4 7 11 12 2 2 6 9 5 4 3 3 5 3 0 2 2 1 3 1 1 1 3 1 1 3 4 2 3 4 2 2 2 4 5 4 2 3 4 1 1 1 3
11 10 11 9 8 7 6 6 7 8 6 6 7 6 6 13 11 6 6 7 5 4 7 2 1 1 6 3 1 4 3 3 4 4 6 1 1 1 4 3 2 5 3 2 8 6 7 9 2 4 5 7 2 2 2 6 3 3 3 2 0 1 2 0 3 0 5 2 2 0 2 5 4 5 6 3 3 2 3 5 5 4 4 4 2 1 1 2
12 11 10 9 8 8 9 8 8 8 6 3 1 4 4 9 17 17 11 7 2 5 3 4 2 4 3 6 2 5 2 6 8 8 4 3 2 5 5 4 2 2 4 2 6 8 5 5 5 5 2 8 10 9 2 0 1 1 4 4 3 3 2 2 1 3 7 2 1 1 3 9 8 7 6 4 2 4 5 6 5 3 3 4 3 2 2 2
12 11 11 9 8 10 9 9 9 7 4 3 1 2 3 5 3 8 11 7 7 8 7 10 9 5 1 6 6 7 4 5 3 5 10 8 4 2 3 1 3 2 1 5 3 6 5 5 6 9 9 10 9 5 5 2 2 2 2 1 1 2 3 3 2 2 4 6 4 0 2 6 8 7 6 4 4 5 7 4 4 4 3 3 3 3 2 3
13 12 11 9 9 10 9 10 10 7 2 4 3 1 3 3 8 5 8 13 10 5 4 1 0 1 2 6 6 7 4 4 5 8 6 1 4 6 6 3 3 8 6 3 7 4 1 11 7 2 1 4 3 1 3 2 1 1 1 1 3 3 5 3 1 2 4 3 2 2 3 4 9 8 8 5 3 3 5 6 5 3 1 2 3 3 4 4
14 14 11 9 10 10 9 10 10 8 5 6 4 4 1 3 4 2 2 5 1 3 5 2 2 1 1 2 4 6 4 2 3 11 7 4 2 4 7 5 8 9 6 2 2 3 5 12 6 2 2 3 4 3 0 2 1 0 1 1 3 0 4 2 1 3 6 4 3 1 6 10 8 7 7 4 1 6 6 6 6 4 3 4 4 4 5 5
15 14 12 11 12 11 9 9 11 6 9 6 8 6 1 1 0 1 4 5 4 3 6 1 1 2 2 3 2 2 3 2 14 15 8 8 6 5 5 9 7 5 5 3 3 8 11 7 3 3 2 0 1 5 1 2 1 3 1 1 1 3 6 7 2 4 4 3 5 3 8 11 10 8 6 4 5 3 5 6 5 5 4 3 3 4 5 5
16 15 11 11 12 11 8 6 7 10 5 8 5 4 2 0 1 2 2 8 4 1 3 3 5 4 4 3 1 3 3 10 3 10 9 6 3 8 1 7 10 5 8 6 6 3 7 2 4 1 0 2 2 5 4 4 6 6 5 4 3 2 5 5 3 6 9 2 3 5 6 9 8 4 2 2 4 3 3 3 5 3 3 4 5 4 4 4
14 15 12 14 12 11 8 4 2 10 6 5 7 3 1 1 1 1 1 2 4 2 1 0 1 1 3 3 2 5 4 1 2 12 7 4 3 1 5 4 7 6 8 9 11 13 5 1 1 2 3 2 1 4 7 4 1 2 3 3 1 3 3 4 6 8 7 1 1 6 2 3 5 5 5 3 1 1 2 3 4 4 4 4 4 5 4 5
15 15 14 16 13 11 6 4 8 1 2 4 3 1 0 0 1 0 3 1 5 2 3 1 2 1 1 1 2 0 0 1 2 3 3 3 4 3 1 1 4 3 2 2 7 10 3 1 0 1 3 4 2 3 3 2 3 3 0 2 1 2 4 5 6 7 6 1 3 5 4 1 4 6 6 7 4 3 2 3 7 7 6 5 5 6 6 5
16 15 15 13 15 11 4 4 0 3 3 2 1 0 0 1 1 0 6 4 2 4 3 4 1 2 2 3 4 0 1 3 2 2 1 1 3 2 1 4 2 2 2 1 5 4 2 1 4 0 2 3 4 2 1 1 1 1 0 3 1 1 2 2 6 2 3 3 4 3 5 3 5 2 3 4 5 7 7 5 8 6 6 5 5 5 5 6
16 15 15 14 15 7 2 1 1 2 0 0 1 1 0 1 0 1 1 5 4 2 2 2 1 1 2 2 0 0 1 2 2 2 4 3 2 1 5 4 3 2 2 1 3 3 2 5 6 5 6 4 4 5 1 2 2 1 1 3 1 1 0 2 1 2 0 1 3 5 3 1 4 6 2 4 3 6 7 6 6 5 5 6 5 5 5 6
17 15 15 13 12 9 1 5 2 2 1 1 0 0 1 1 2 1 4 2 1 2 1 4 0 2 3 5 7 5 1 4 2 3 3 5 1 4 9 1 3 0 1 3 6 1 3 3 4 5 4 4 2 2 1 2 1 1 2 4 1 1 1 1 1 1 0 0 1 3 2 1 3 7 4 3 3 4 5 6 6 6 5 6 6 7 6 6
16 15 15 11 5 9 7 4 4 2 1 1 1 1 1 1 2 5 4 2 1 1 2 0 2 1 7 4 6 3 1 4 3 2 6 1 7 2 5 1 5 5 2 2 6 1 1 1 1 2 3 4 3 1 2 4 1 1 1 2 1 1 2 1 1 2 1 2 1 2 2 1 6 6 5 2 1 5 4 3 5 5 5 6 6 6 6 6
15 15 16 11 2 4 5 3 4 1 1 1 2 1 2 2 2 2 2 1 0 0 1 3 3 5 3 2 3 8 7 4 1 5 5 2 8 8 3 1 2 3 5 8 8 2 0 3 4 3 1 1 2 3 2 3 1 2 2 1 2 3 1 2 3 2 2 1 2 1 2 1 3 4 5 3 3 3 2 3 4 4 4 5 5 6 6 5
12 13 15 8 4 1 1 3 0 1 1 2 3 3 2 6 3 5 1 1 1 1 1 4 1 5 6 5 3 5 2 3 7 4 4 6 10 5 3 1 4 3 5 5 4 4 1 1 0 1 1 2 1 2 1 1 0 0 0 1 2 1 3 1 3 3 1 2 2 1 0 1 1 3 6 7 3 4 4 3 3 3 4 4 5 5 6 5
11 9 12 9 0 1 1 3 1 1 1 2 2 2 3 2 7 3 3 4 1 2 2 2 1 1 3 1 5 5 4 6 3 5 5 2 4 9 9 3 4 2 4 4 4 3 1 1 3 6 1 3 2 1 1 2 3 6 3 5 1 4 5 2 6 3 1 0 0 0 0 1 6 8 2 2 7 5 6 5 6 4 4 5 5 6 6 5
9 7 6 6 2 3 2 1 2 1 1 1 3 3 2 5 1 2 1 2 0 0 0 1 1 2 1 1 4 3 2 3 4 3 1 0 5 2 1 4 1 1 2 2 1 5 2 3 4 5 3 0 2 4 6 2 3 7 4 2 4 4 4 1 4 2 4 5 2 0 0 2 4 6 6 6 7 7 6 6 5 5 5 5 6 6 5 6
6 4 3 2 4 2 1 1 1 1 2 1 1 3 7 5 1 1 1 1 1 2 2 1 2 0 6 3 1 2 3 0 2 3 3 0 6 4 5 4 5 4 3 1 4 0 2 2 2 3 1 3 3 2 1 2 2 2 1 0 3 5 1 1 1 1 2 6 5 4 1 3 4 2 1 8 4 4 5 4 4 5 6 6 6 7 8 7
2 4 3 1 1 1 1 1 1 1 2 1 9 4 4 1 1 4 2 1 2 1 0 0 1 2 3 2 2 1 1 1 2 2 8 5 3 1 3 6 5 2 0 1 0 0 0 4 1 1 2 1 2 0 1 1 0 3 1 2 5 1 2 0 2 2 2 4 7 1 4 3 4 2 3 1 3 4 3 5 4 6 5 4 7 8 8 7
2 0 0 1 2 1 1 1 0 1 1 7 6 6 2 4 1 2 1 2 1 2 1 2 3 2 1 1 1 2 3 0 3 2 3 3 1 1 1 1 2 2 2 2 1 1 3 0 1 6 3 2 1 0 1 0 1 1 2 2 1 2 2 3 1 1 1 3 7 1 8 5 7 2 2 5 4 6 4 6 5 6 6 5 7 8 7 7
1 2 2 3 2 1 0 0 0 1 7 5 4 1 2 1 1 2 2 1 1 3 2 2 1 1 1 0 1 3 1 1 1 2 1 0 1 1 0 1 1 1 0 2 1 1 1 5 2 2 0 1 1 0 1 0 1 1 4 2 2 2 3 2 1 3 4 1 3 3 3 9 5 2 2 2 5 9 6 7 6 6 6 6 8 8 8 7
1 1 0 1 2 1 0 0 1 6 7 7 5 3 0 2 0 0 0 0 0 1 3 1 0 1 2 1 0 1 3 1 4 5 0 0 0 1 1 0 0 1 1 1 1 1 1 2 1 0 1 5 2 0 2 0 0 2 2 2 1 1 1 4 2 4 4 3 6 7 3 7 4 5 1 3 5 7 7 6 4 7 6 7 7 8 9 7
2 1 1 2 1 3 0 1 5 2 3 9 2 3 1 0 0 0 2 2 0 2 1 1 1 1 2 1 1 0 1 1 0 1 1 0 1 2 0 1 0 1 2 1 2 1 1 0 3 0 0 3 2 1 1 2 2 1 1 1 1 3 2 2 0 2 4 5 7 7 4 3 5 4 6 3 7 6 6 4 5 8 8 7 7 7 8 8
2 1 1 1 3 2 1 3 8 9 7 5 3 1 0 2 0 1 1 0 0 1 1 2 0 2 0 2 1 1 1 1 1 0 0 1 0 0 0 3 0 0 1 1 2 0 1 0 1 1 2 2 0 2 1 1 1 1 1 2 1 2 1 2 1 1 1 2 1 1 9 7 6 5 5 5 4 6 6 5 5 6 7 8 7 8 8 8
1 3 1 2 5 2 3 13 12 8 7 0 2 3 1 2 0 0 1 0 0 1 1 1 4 1 4 2 1 0 0 0 0 0 1 0 2 0 1 0 1 1 1 1 2 1 1 0 2 4 4 0 2 0 1 0 1 0 0 1 3 1 1 1 3 1 2 1 2 1 10 9 11 3 6 4 6 5 7 5 6 7 7 7 7 7 7 8
1 1 2 2 5 2 3 8 4 0 5 4 1 1 1 2 3 0 1 0 1 0 0 3 1 3 1 1 1 1 1 1 0 1 1 1 0 1 0 1 2 1 1 1 0 1 1 1 1 5 3 1 1 1 0 0 1 1 1 0 2 2 5 4 0 2 1 1 3 2 0 12 7 3 4 5 5 5 5 3 6 7 8 8 8 8 9 7
3 0 1 4 5 4 11 7 1 6 4 1 3 1 1 1 2 1 1 0 0 0 1 1 1 1 2 0 2 1 1 0 3 1 1 1 1 1 2 2 3 1 2 1 0 0 3 1 3 5 2 2 2 2 0 1 0 1 1 0 1 1 3 4 2 4 4 1 1 1 2 12 8 2 4 5 6 6 6 5 8 9 8 8 8 10 10 9
1 1 2 1 3 3 3 1 1 1 0 1 2 0 2 1 1 2 0 0 1 0 1 1 1 1 1 1 1 2 1 1 2 1 1 1 0 2 2 3 0 1 1 2 2 1 0 1 2 3 5 4 1 1 1 1 1 1 2 2 2 2 5 3 4 1 0 7 7 8 7 8 3 1 3 2 3 4 7 7 6 8 8 9 10 9 8 8
0 1 0 6 7 5 2 3 8 6 1 4 1 3 0 1 1 0 1 1 0 1 1 0 0 2 2 1 2 1 1 1 0 1 0 1 2 1 3 4 3 1 1 2 1 1 0 2 1 1 1 3 5 5 3 2 3 3 1 0 2 5 7 2 1 1 2 2 4 3 8 12 7 6 6 5 4 8 8 7 5 7 9 10 9 9 9 7
1 1 4 4 8 7 6 2 6 8 7 3 3 1 1 1 1 1 3 0 0 0 1 2 1 2 2 0 2 3 2 3 1 0 1 1 2 1 2 4 2 1 1 1 1 1 1 0 2 5 6 7 8 4 1 2 1 2 2 3 4 2 1 4 5 4 7 3 7 13 8 11 17 17 8 7 5 7 11 12 11 11 10 9 7 8 8 8
1 2 0 0 4 7 3 3 3 4 5 5 2 4 1 1 1 1 4 0 0 1 0 0 2 2 1 1 1 2 1 3 4 0 2 2 1 1 2 2 1 1 1 1 1 2 2 1 5 5 7 10 5 5 3 2 5 5 5 5 6 7 7 7 8 8 6 7 9 6 9 7 18 18 12 10 10 9 9 8 9 9 8 9 10 10 12 11
0 1 2 1 1 1 1 2 3 5 3 2 0 1 4 3 1 2 1 0 0 0 1 0 1 2 6 3 4 1 1 1 1 2 1 0 1 1 1 1 1 3 2 0 0 1 2 2 2 3 7 8 9 10 5 3 5 6 7 6 8 9 8 12 14 8 9 7 14 2 3 5 16 14 15 14 15 12 10 11 9 8 9 10 9 9 10 11
2 1 1 1 0 1 0 0 3 7 6 2 2 2 3 4 5 4 3 1 0 1 1 1 4 7 6 2 3 2 3 1 3 2 4 2 3 2 0 1 0 3 1 0 1 0 1 3 2 1 6 7 11 10 4 6 4 5 12 12 11 10 15 17 16 9 13 15 16 14 9 16 20 20 21 21 15 9 10 7 7 8 11 9 7 8 9 10
1 1 1 4 5 3 0 1 2 3 3 1 2 4 6 7 6 1 1 3 1 1 0 1 4 2 6 5 4 4 8 4 2 2 4 4 0 2 3 5 3 1 1 1 0 1 1 4 2 1 3 7 6 4 0 3 3 8 12 10 10 12 12 14 9 8 8 14 19 19 15 20 23 19 14 16 13 9 9 11 11 10 8 7 7 9 10 10
0 0 3 6 2 1 1 1 1 1 1 1 2 1 2 4 5 6 2 3 2 6 5 7 5 4 1 4 2 7 5 4 4 1 8 6 2 6 4 2 7 5 1 1 0 2 1 3 2 2 3 6 3 3 5 3 5 9 19 15 10 10 9 9 11 11 9 15 8 3 8 14 21 8 4 8 8 7 9 11 10 9 6 6 7 9 9 10
1 0 2 2 2 1 1 1 0 2 1 5 3 3 3 7 4 6 1 1 2 2 7 6 5 7 1 3 11 9 3 5 2 1 5 1 4 4 2 2 6 9 7 4 1 3 4 2 1 0 1 6 4 2 6 8 8 9 10 11 11 12 6 1 5 3 13 8 4 7 13 13 9 1 4 7 6 8 8 10 10 10 8 7 8 10 10 10
Wind_Direction
26 21 14 7 0 353 347 347 344 343 337 333 328 330 327 338 340 338 339 336 340 340 333 329 323 320 325 329 322 331 349 62 45 33 40 13 331 325 328 327 327 325 333 360 11 44 21 28 18 335 52 51 320 39 319 40 11 52 51 94 72 145 78 201 171 186 150 117 222 34 181 128 129 335 270 60 34 83 7 83 318 350 324 224 256 263 287 306
27 22 10 3 358 353 353 350 344 338 335 327 324 326 329 336 338 339 337 341 340 334 330 330 320 311 296 311 309 339 90 30 41 32 44 339 347 342 338 333 329 334 341 36 42 36 66 21 7 40 45 45 327 33 13 19 45 72 96 60 116 194 182 148 187 172 108 164 179 170 163 132 185 125 279 87 312 28 7 302 10 318 295 315 311 300 340 347
27 19 9 2 359 356 355 357 353 346 340 331 330 333 333 340 344 340 343 336 344 334 328 330 332 307 295 292 302 349 29 350 32 13 341 349 343 341 334 330 324 335 1 252 228 84 80 105 334 77 14 83 14 23 33 345 64 16 105 82 54 202 164 208 136 155 174 151 120 116 137 85 285 160 313 149 174 74 103 274 339 344 280 299 295 316 319 356
22 13 5 359 357 354 355 358 358 352 346 344 340 344 338 343 338 348 335 345 336 341 335 341 358 35 10 333 354 1 74 34 42 318 323 340 338 334 332 327 325 333 53 125 138 88 119 78 44 69 82 61 328 10 48 332 80 322 70 141 166 184 108 344 60 44 125 138 154 142 221 87 342 339 99 163 93 320 273 225 186 240 255 272 284 292 311 338
18 7 0 358 354 349 356 356 358 359 354 348 348 347 343 343 344 342 343 326 336 343 342 335 9 55 30 41 63 74 72 58 326 335 323 334 333 331 327 327 329 331 20 137 73 53 68 74 52 48 67 49 1 29 25 355 72 82 80 90 119 150 83 215 294 117 145 147 104 96 93 181 305 32 79 154 188 233 214 241 215 221 237 247 277 292 317 298
12 5 353 351 355 358 356 357 359 1 355 350 349 346 345 342 342 342 334 332 340 344 342 321 302 56 47 63 81 59 79 89 308 318 325 326 327 329 324 327 330 333 76 60 73 46 55 11 66 36 37 58 4 75 311 14 21 97 357 42 3 181 125 246 351 353 112 77 94 82 235 37 56 182 193 128 177 240 220 204 206 220 229 239 256 266 290 308
5 360 357 2 1 1 357 353 353 354 353 352 349 345 339 337 320 344 337 340 342 346 334 323 287 266 325 42 54 74 82 153 349 291 320 325 322 328 320 326 339 13 62 61 34 77 53 87 76 68 92 84 36 80 39 62 44 84 112 66 24 67 100 203 86 63 78 92 71 208 32 97 97 105 208 202 249 231 245 231 223 234 275 322 296 266 250 261
6 3 1 359 356 354 352 345 346 343 344 344 342 345 342 326 335 335 345 340 346 343 351 347 121 161 24 48 32 58 53 327 307 302 315 326 325 326 325 324 8 30 56 61 337 90 104 66 97 150 51 91 193 104 153 73 36 80 84 228 147 62 161 337 109 80 85 87 246 75 133 270 167 183 82 256 242 257 258 255 269 291 326 318 287 267 280 278
6 1 359 355 351 346 352 346 342 333 328 344 340 342 339 331 333 342 342 339 343 350 6 47 53 57 83 98 109 65 8 265 281 300 326 330 325 331 354 17 337 51 91 46 27 120 89 226 66 162 159 101 19 105 295 86 26 71 137 131 105 117 147 43 73 47 90 193 48 69 325 296 259 323 255 221 239 242 250 304 288 322 312 291 269 262 277 261
7 360 354 351 347 347 347 346 344 343 342 345 342 340 340 337 334 335 329 333 330 349 9 50 69 114 52 68 97 68 262 273 297 318 327 330 328 342 11 14 6 37 53 2 36 32 78 145 114 102 115 78 98 29 290 78 152 120 120 110 123 158 114 321 128 284 231 71 319 139 293 296 328 51 296 275 243 257 299 281 313 304 267 266 266 289 288 246
4 356 352 348 350 344 345 346 348 346 351 354 352 342 334 329 327 323 322 319 327 338 8 40 63 65 60 67 75 103 246 9 326 331 329 333 348 7 0 355 358 52 61 43 57 30 58 97 119 135 43 134 114 23 54 146 117 105 125 80 45 34 41 14 21 270 346 290 122 120 210 298 307 57 224 249 252 237 236 285 298 303 255 258 258 287 298 295
359 356 349 347 346 345 343 345 345 340 349 349 348 356 351 328 322 329 329 313 314 360 284 243 22 99 77 68 61 76 253 269 327 322 334 351 339 304 313 7 32 60 63 63 32 27 159 151 84 74 150 181 76 115 56 143 90 149 109 78 10 20 47 6 230 266 97 281 140 146 23 341 330 210 245 238 272 24 249 287 304 290 262 264 277 300 310 271
356 352 346 341 338 335 334 334 330 330 326 334 359 13 7 350 316 320 335 348 342 13 83 98 100 66 68 52 338 240 288 300 335 331 344 4 324 206 250 45 44 55 68 80 47 357 57 124 100 75 57 86 140 40 171 87 107 142 28 125 48 3 12 334 334 358 102 258 132 123 350 270 267 246 263 262 213 343 311 306 312 318 305 292 286 318 304 317
350 350 342 336 334 331 331 322 324 324 328 320 333 340 355 358 349 336 343 316 329 31 108 98 76 71 82 114 261 250 287 351 350 9 4 321 25 313 358 5 39 35 25 97 90 42 74 64 83 109 108 86 113 244 86 21 24 112 269 55 72 53 327 298 46 313 150 218 104 70 215 284 271 280 258 264 181 168 270 284 298 305 302 288 289 329 301 306
351 349 343 341 331 330 325 318 315 330 326 324 323 327 335 354 358 13 5 6 5 356 84 63 55 77 50 143 267 299 291 49 19 353 319 11 0 344 350 341 359 360 353 56 90 38 27 59 63 40 49 318 53 59 24 34 6 41 41 326 336 93 288 296 340 52 62 323 67 84 54 232 266 267 259 242 166 146 249 269 290 300 282 267 285 305 328 302
353 348 346 341 331 317 316 327 334 329 325 319 324 322 330 7 6 38 36 34 332 15 11 52 354 93 109 60 310 9 40 24 340 316 322 53 29 35 282 287 303 1 30 23 49 48 27 62 68 122 29 9 51 68 62 35 347 2 92 187 350 28 302 356 73 73 325 258 342 168 245 326 323 274 294 273 193 215 241 282 289 294 269 255 275 282 320 326
353 349 346 340 327 315 339 342 339 329 318 316 325 332 331 18 24 44 62 43 3 341 68 36 57 110 72 247 349 27 320 289 299 340 337 33 81 320 345 29 11 343 360 36 24 53 6 60 274 32 47 86 347 83 29 28 346 330 19 100 259 48 338 285 305 22 355 61 303 346 180 237 250 299 300 289 210 208 245 265 278 267 251 262 277 318 320 304
353 351 346 334 331 346 353 345 332 329 314 311 338 337 343 342 32 39 360 7 358 75 83 103 109 45 20 14 30 302 315 294 344 306 267 305 59 10 52 31 335 13 37 18 3 44 339 48 22 122 57 27 28 22 111 213 203 296 345 16 330 339 230 260 39 299 12 360 292 313 252 272 282 304 305 257 245 196 236 243 250 267 295 303 314 331 301 300
351 347 352 350 343 355 349 343 341 330 323 280 80 340 337 13 14 58 33 336 36 355 26 341 14 81 189 307 287 293 290 249 276 18 336 360 331 45 39 63 64 67 327 59 330 50 347 68 40 40 16 359 10 40 81 163 134 176 171 205 215 325 304 321 262 290 40 320 338 38 253 298 301 299 297 296 236 204 243 287 294 291 294 297 302 296 297 288
351 350 349 346 351 353 351 350 351 355 337 81 18 42 18 17 8 352 345 36 60 88 131 273 118 77 358 350 338 284 261 360 46 343 358 347 346 357 44 50 354 64 60 46 318 24 40 74 60 92 302 306 284 251 242 224 188 170 150 151 238 249 286 274 260 310 339 320 253 256 306 289 286 277 277 273 275 228 269 279 278 278 285 298 306 296 284 287
352 351 347 341 353 351 354 1 5 20 77 87 81 64 226 158 81 65 322 69 177 45 78 38 72 105 104 279 305 3 21 322 70 5 359 275 99 58 341 23 9 51 0 280 131 310 70 69 16 275 244 241 273 296 262 104 119 173 150 195 311 166 324 244 255 356 335 47 289 15 333 298 283 287 271 282 154 228 229 249 269 258 264 265 263 276 273 259
352 350 346 347 352 349 350 4 18 39 60 87 71 97 135 207 126 136 121 58 8 15 40 19 359 29 316 229 264 143 112 15 15 356 343 30 341 89 326 70 58 62 323 357 17 25 44 72 309 284 247 166 52 10 65 132 117 21 205 261 20 321 270 291 274 336 340 8 264 357 343 302 307 296 294 240 205 242 216 205 214 204 248 272 275 277 285 316
353 347 344 347 347 343 341 343 38 49 37 40 72 86 122 183 323 212 103 122 86 323 50 12 21 11 353 312 347 115 53 44 312 347 342 17 359 59 39 47 42 40 31 19 120 79 56 348 320 270 100 32 360 18 52 56 62 41 18 45 327 285 21 320 294 344 342 48 281 324 313 295 313 305 319 275 206 269 268 228 256 201 211 230 239 243 281 293
347 350 335 349 343 338 340 348 28 39 33 93 86 100 169 73 84 106 67 92 130 337 41 240 121 138 26 19 330 41 54 352 71 336 342 50 63 237 69 63 66 38 41 47 74 83 127 284 261 74 55 94 57 357 44 47 23 354 85 111 27 338 311 203 282 333 309 8 63 316 51 325 354 356 332 338 336 322 331 342 304 292 256 265 302 309 233 249
347 345 341 344 341 335 327 40 39 87 154 45 49 256 269 130 57 71 94 17 20 25 168 54 117 61 299 283 355 233 295 58 94 235 280 56 353 37 90 139 94 23 128 54 81 84 42 270 235 40 42 51 81 24 30 85 22 322 252 142 119 227 264 288 299 338 17 351 9 19 33 313 307 298 255 285 342 324 331 353 287 277 294 318 302 277 296 278
345 346 341 335 340 335 269 52 9 148 73 58 197 252 246 69 94 67 92 76 49 282 3 8 173 352 179 342 19 54 56 52 270 272 359 107 189 126 80 26 64 141 201 103 101 113 139 339 73 50 107 63 67 96 235 93 109 76 270 164 163 215 207 296 333 12 25 52 329 34 94 273 330 332 295 311 335 299 313 307 280 295 292 294 272 276 279 279
343 342 343 342 342 333 56 222 169 120 14 283 207 235 14 37 120 63 51 360 40 296 4 254 70 318 102 297 19 78 54 311 326 360 24 347 32 327 92 322 31 51 97 157 37 5 14 350 22 36 50 54 43 27 218 120 96 327 150 138 120 96 9 340 58 62 183 291 303 39 72 185 311 295 260 292 315 308 321 314 318 301 293 287 284 284 279 276
345 339 343 343 357 35 169 119 83 70 166 159 136 105 44 90 82 40 77 67 323 355 2 317 55 339 64 320 39 89 157 290 35 335 78 307 109 9 79 115 112 262 285 82 106 262 76 342 26 5 48 51 57 237 264 161 182 244 169 145 270 191 182 95 63 36 202 43 336 325 334 77 262 265 309 357 345 330 303 292 293 300 296 284 289 285 277 264
343 337 339 339 345 46 58 100 108 117 200 164 90 69 71 85 92 105 125 107 253 73 174 90 253 32 335 356 33 9 343 16 110 299 329 344 31 164 63 146 141 129 85 140 155 219 335 136 223 120 76 359 263 267 190 154 18 288 128 117 66 78 75 85 75 52 345 66 307 298 329 41 292 276 340 325 280 273 255 257 274 277 280 281 282 282 275 274
340 337 341 338 352 9 3 41 56 164 155 90 63 93 100 76 35 36 13 36 22 295 17 272 51 296 26 45 335 4 38 338 60 314 29 83 333 28 52 133 118 53 34 17 67 165 247 292 172 81 34 233 279 260 182 203 211 121 71 63 351 26 45 22 61 75 50 41 270 230 306 98 292 262 222 160 219 199 235 296 279 288 294 279 254 246 255 261
338 340 349 11 78 188 56 48 287 189 115 84 94 89 102 38 109 96 93 218 54 273 2 32 335 14 25 44 349 339 38 343 346 31 350 8 5 37 13 71 36 67 51 17 50 333 359 351 14 261 21 328 77 340 56 101 19 129 74 93 45 329 16 36 348 28 83 281 257 282 110 70 178 293 281 234 260 208 171 199 238 269 266 261 269 269 258 251
336 344 5 34 90 77 95 172 201 181 98 121 111 63 79 262 12 85 163 329 146 291 82 301 2 70 11 331 70 343 358 335 4 30 43 31 35 35 355 107 348 63 354 359 336 357 23 359 291 317 166 64 336 48 317 26 17 72 73 43 97 287 33 333 11 8 358 209 209 50 159 19 240 224 227 262 229 238 220 192 203 221 253 265 267 258 252 256
333 338 31 29 34 49 45 185 120 107 105 130 76 54 60 92 80 268 300 326 227 44 283 135 267 6 295 53 357 340 270 48 322 56 125 9 103 38 318 74 243 205 74 295 342 16 274 309 352 311 2 325 61 70 328 22 326 20 51 17 61 31 37 359 283 225 307 297 261 169 120 245 248 287 230 234 238 215 213 220 218 203 227 246 258 272 284 283
336 1 63 355 67 85 161 132 160 109 106 59 76 17 44 62 209 57 167 244 213 347 47 34 349 30 43 91 306 7 39 244 36 328 48 358 52 28 331 355 49 6 77 60 70 313 42 348 335 23 9 355 53 88 161 216 326 274 199 136 142 128 133 335 234 309 246 248 278 275 39 237 7 210 239 220 261 295 271 266 263 262 258 265 282 288 281 280
30 63 114 35 45 10 160 178 136 160 86 63 54 88 104 214 202 175 224 232 272 330 227 302 48 63 356 21 310 314 170 311 47 28 17 58 5 59 345 326 337 101 159 68 270 83 197 224 293 325 248 359 40 288 115 109 267 255 181 117 55 10 152 82 217 170 286 335 333 233 209 184 190 252 285 283 322 307 315 299 323 294 284 306 305 288 276 274
115 303 83 11 33 296 185 184 114 132 90 60 75 44 92 179 156 160 149 150 87 144 188 37 82 62 317 327 327 62 306 120 336 77 358 63 204 97 256 203 331 12 52 111 275 12 21 43 318 314 21 67 299 307 11 198 57 315 51 34 181 163 96 77 56 44 71 51 256 216 317 304 295 9 322 341 338 289 316 293 292 273 285 317 283 275 274 268
8 338 38 332 4 311 238 110 61 80 61 86 92 83 196 293 219 162 330 140 188 142 81 125 327 104 213 252 265 339 291 39 307 83 342 169 14 186 343 293 190 352 109 129 19 198 155 257 295 65 357 340 230 190 254 253 165 29 55 237 112 127 119 120 263 334 56 90 264 33 278 305 20 282 317 326 300 278 281 272 267 283 283 287 271 273 273 273
39 52 156 35 312 320 353 353 47 47 77 79 67 145 313 96 21 113 228 25 110 40 98 96 231 63 248 131 331 299 308 80 312 45 171 313 130 146 123 212 226 141 302 313 119 298 86 351 318 11 204 283 1 358 341 336 150 127 130 195 68 317 4 327 90 7 347 332 298 309 289 254 193 253 334 257 237 263 262 269 309 282 281 264 271 281 284 286
60 78 20 312 311 357 303 56 65 68 63 62 192 100 249 139 270 139 217 156 328 148 90 226 137 306 134 154 229 319 314 84 358 77 83 295 74 171 143 161 348 20 360 85 67 211 5 155 297 302 126 316 339 67 282 294 340 37 15 32 329 100 145 36 113 169 118 283 16 295 22 268 212 225 187 207 224 239 258 292 252 246 247 257 263 269 277 285
26 32 316 299 297 3 14 71 56 45 60 111 193 127 198 109 257 270 222 198 294 103 223 131 220 117 300 217 141 136 329 98 126 231 105 304 118 21 238 3 164 296 27 352 126 331 192 105 263 277 304 315 240 357 182 166 230 324 33 346 9 57 241 104 42 95 176 178 185 273 327 285 266 214 175 217 222 229 207 230 251 250 253 250 250 260 271 273
44 105 265 326 333 298 42 44 45 35 92 227 79 150 39 180 198 312 346 182 159 316 190 162 159 142 193 111 267 259 102 90 67 130 173 279 159 262 36 113 248 317 307 21 54 333 80 35 222 305 360 312 234 169 237 120 293 247 143 155 166 120 25 53 287 7 63 80 238 120 269 276 276 180 208 209 243 232 230 213 245 256 256 260 270 274 261 268
76 41 277 325 333 49 75 52 22 80 93 102 95 152 104 113 60 325 4 357 107 174 348 109 47 115 120 80 160 157 127 84 193 90 266 156 253 113 215 132 159 216 127 186 150 241 128 157 80 287 211 234 260 305 331 270 136 203 157 285 135 108 104 98 118 276 23 258 104 151 303 273 242 218 217 238 255 241 252 224 253 266 268 272 272 273 281 261
52 182 262 15 332 76 64 74 347 43 59 238 304 356 8 35 127 236 111 320 187 183 26 57 195 81 288 159 218 90 193 190 159 226 185 230 252 204 243 99 232 65 90 328 14 281 103 67 3 278 317 309 319 302 323 69 105 345 256 270 106 164 180 174 177 175 138 139 117 11 236 253 280 223 224 239 254 272 273 229 250 272 275 274 279 290 289 293
168 242 327 330 23 94 79 160 116 33 105 333 68 151 322 177 136 47 231 288 144 110 145 167 2 340 153 97 104 143 228 122 254 115 292 184 139 86 340 4 129 181 129 218 131 227 50 294 114 321 357 340 342 350 4 334 66 196 225 213 174 84 78 128 97 38 283 218 172 133 235 274 270 307 295 249 285 290 273 266 217 259 278 279 284 285 283 281
114 306 254 305 3 55 124 176 129 146 186 146 130 91 353 18 63 185 161 194 21 187 99 312 202 147 63 109 86 86 342 102 182 311 118 177 201 359 330 47 298 143 257 244 267 344 131 212 105 47 12 349 320 322 291 295 245 230 217 151 233 137 137 115 230 42 217 278 137 179 252 251 274 306 299 295 313 299 283 276 258 217 247 273 288 290 293 293
48 149 304 342 13 38 61 46 105 131 138 155 91 226 113 82 344 300 132 337 198 41 19 128 13 81 105 83 59 27 46 323 84 249 124 230 249 341 227 330 58 166 221 201 69 95 157 357 185 156 163 201 214 209 228 108 36 212 237 166 209 201 161 93 96 110 210 205 194 238 221 299 300 283 274 283 285 267 286 298 301 305 303 297 288 288 290 291
169 82 314 321 342 47 82 26 85 86 169 178 115 174 163 146 199 354 180 19 249 155 25 25 187 139 235 103 186 94 244 314 356 100 225 182 244 248 305 97 357 80 350 149 90 82 66 294 240 194 232 236 235 256 196 140 246 247 238 235 203 182 177 155 168 218 166 89 280 240 246 244 263 278 291 298 292 283 272 271 284 290 287 289 293 300 300 300
90 248 106 211 139 263 61 360 91 88 77 80 99 76 150 129 163 149 314 246 35 296 117 321 96 258 176 173 147 144 47 23 45 216 34 283 76 343 26 352 60 310 344 353 350 152 149 190 274 134 260 250 258 263 258 264 226 245 228 220 203 198 178 196 224 199 147 187 237 240 145 214 261 265 277 280 273 271 276 278 275 271 281 286 292 295 296 294
103 151 140 307 169 250 143 174 96 118 86 102 105 93 164 162 191 211 161 129 22 279 192 224 253 219 198 208 138 151 165 107 283 237 183 173 184 119 279 336 244 19 73 14 8 161 95 260 223 177 278 287 278 264 239 221 266 259 250 236 225 193 209 212 228 204 196 231 247 272 273 265 270 276 274 273 280 282 278 278 281 281 270 274 285 283 284 287
238 124 256 6 86 115 227 73 96 74 88 136 112 235 160 180 184 205 317 139 145 263 174 196 247 220 177 160 142 149 212 188 170 204 212 128 139 184 222 192 157 354 39 167 145 311 117 281 89 48 338 285 278 329 136 198 196 265 261 240 219 213 226 226 237 240 230 265 263 262 275 278 273 259 268 279 282 288 298 283 267 266 273 272 275 277 277 277
228 143 149 116 65 318 32 33 108 117 100 290 117 213 117 203 214 180 184 180 156 175 184 207 187 111 97 162 176 240 222 181 167 19 182 161 186 214 155 264 133 146 161 136 161 312 48 254 48 66 348 295 319 19 315 290 245 249 277 268 208 194 215 219 206 213 179 226 234 242 263 258 261 282 236 264 277 274 264 269 278 271 261 265 263 266 270 276
90 138 90 101 95 279 182 359 22 84 263 226 154 197 180 225 197 161 118 197 190 174 188 169 174 109 83 132 229 224 217 179 198 250 160 87 94 80 45 136 139 152 169 164 169 142 178 143 160 269 307 259 267 349 326 321 318 298 267 250 200 199 200 326 264 230 215 191 180 209 237 231 262 270 268 272 244 264 264 257 263 273 266 251 255 263 270 272